Regional Weather Roundup
Issued by NWS

Home | Current Version | Previous Version | Graphics & Text | Print | Product List | Glossary On
Versions: 1 2 3 4 5 6 7 8 9 10 11 12 13 14 15 16 17 18 19 20 21 22 23 24 25 26 27 28 29 30 31 32 33 34 35 36 37 38 39 40 41 42 43 44 45 46 47 48 49 50
000
ASUS45 KSLC 261910
RWRUT

UTAH REGIONAL WEATHER ROUNDUP
NATIONAL WEATHER SERVICE SALT LAKE CITY UT
1200 PM MST MON JAN 26 2015

UTZ001>011-023>025-262000-

NORTHERN UTAH

CITY           SKY/WX    TMP DP  RH WIND       PRES   REMARKS
BRIGHAM CITY   SUNNY     40  33  74 CALM      30.36F
DUGWAY         SUNNY     44  36  73 NW5       30.35
HILL AFB       SUNNY     45  27  49 NW5       30.34F
LOGAN          MOSUNNY   34  33  96 SW6       30.36F FOG     WCI  29
OGDEN          SUNNY     45  34  65 NW6       30.34F
PROVO AIRPORT  NOT AVBL
SALT LAKE CITY SUNNY     45  34  65 N7        30.35F
VERNAL         SUNNY     40  24  53 CALM      30.45F
WENDOVER       SUNNY     39  30  70 SE6       30.36F WCI  35
HEBER CITY     SUNNY     36  28  75 CALM      30.38F
WEST JORDAN    SUNNY     46  36  66 CALM      30.35F

$$

UTZ012>022-026-027-262000-

SOUTHERN/CENTRAL UTAH

CITY           SKY/WX    TMP DP  RH WIND       PRES   REMARKS
BLANDING       SUNNY     52  26  35 W3        30.43F
BRYCE CANYON   SUNNY     46  25  43 SE14      30.37F
CEDAR CITY     SUNNY     47  32  56 W5        30.29F
DELTA          SUNNY     44  33  64 CALM      30.30F
MILFORD        SUNNY     46  34  62 N9        30.30F
MOAB/CYNLANDS  SUNNY     46  25  43 CALM      30.36F
PRICE          SUNNY     51  25  36 S3        30.36F
ST GEORGE      CLEAR     54  30  40 W3        30.27F
KANAB          SUNNY     57  27  30 NE12G20   30.35S

$$

REGIONAL REPORTS     COLORADO/ARIZONA

CITY           SKY/WX    TMP DP  RH WIND       PRES   REMARKS
CRAIG, CO      SUNNY     32  24  72 SW6       30.44F WCI  26
GRAND JUNCTION SUNNY     48  26  42 S7        30.39F
RIFLE          SUNNY     46  25  43 E3        30.42F
MONTROSE       SUNNY     48  23  37 W3        30.42F
CORTEZ         SUNNY     53  20  27 CALM      30.35F
PAGE, AZ       SUNNY     48  26  42 VRB5      30.35F
GRAND CANYON   PTSUNNY   51  23  33 E14G22    30.33F
KINGMAN        PTSUNNY   65  24  21 NW6       30.20F
FLAGSTAFF      PTSUNNY   47  23  38 NE10      30.35F

$$

REGIONAL REPORTS    NEVADA/IDAHO/WYOMING

CITY           SKY/WX    TMP DP  RH WIND       PRES   REMARKS
LAS VEGAS, NV  PTSUNNY   64  30  27 S5        30.14F
ELY            SUNNY     48  28  46 N3        30.31F
ELKO           SUNNY     45  32  60 W3        30.26F
POCATELLO, ID  FOG       32  32 100 E5        30.36F VSB 1   WCI  27
BURLEY         CLOUDY    36  32  85 NE17      30.30F WCI  26
EVANSTON, WY   MOSUNNY   42  29  59 N3        30.39F
ROCK SPRINGS   SUNNY     47  29  49 CALM      30.39F
KEMMERER       SUNNY     41  28  60 NW7       30.41F

$$



USA.gov is the U.S. government's official web portal to all federal, state and local government web resources and services.